Cherokee Municipal Airport
Saturday 10:55 PM
Temperature32° (48°/19°)
Dew Point26°
Relative Humidity76
%
Visibility10
mi
Pressure1020.0
mb
Wind Direction
Wind SpeedCalm
Precipitation Today0.00"

Last 30 Observations

Time PresWx Temp DP Feels RH% Vsby Pressure Ceiling Direction Speed 1h Precip
10:35 PM 33° 24° 72
%
10
mi
1020.3
mb
Calm 0.00"
10:15 PM 34° 25° 70
%
10
mi
1020.0
mb
Calm 0.00"
9:55 PM 35° 26° 31°69
%
10
mi
1020.0
mb
SSE
150°
5
mph
0.00"
9:35 PM 35° 26° 29°70
%
10
mi
1019.7
mb
SSE
150°
6
mph
0.00"
9:15 PM 36° 26° 67
%
10
mi
1019.7
mb
Calm 0.00"
8:55 PM 36° 25° 30°65
%
10
mi
1019.7
mb
ESE
120°
7
mph
0.00"
8:35 PM 37° 25° 32°60
%
10
mi
1019.7
mb
ESE
120°
7
mph
0.00"
8:15 PM 39° 25° 34°55
%
10
mi
1019.7
mb
ESE
120°
7
mph
0.00"
7:55 PM 41° 26° 38°54
%
10
mi
1020.0
mb
ESE
120°
5
mph
0.00"
7:35 PM 43° 25° 39°48
%
10
mi
1020.0
mb
SE
140°
7
mph
0.00"
7:15 PM 45° 24° 41°42
%
10
mi
1020.0
mb
SE
140°
8
mph
0.00"
6:55 PM 46° 23° 42°40
%
10
mi
1020.0
mb
SE
130°
9
mph
0.00"
6:35 PM 47° 22° 42°37
%
10
mi
1020.0
mb
SE
130°
11
mph
0.00"
6:15 PM 47° 22° 43°37
%
10
mi
1019.7
mb
SE
140°
9
mph
0.00"
5:55 PM 48° 23° 44°36
%
10
mi
1019.7
mb
ESE
120°
9
mph
0.00"
5:35 PM 48° 22° 43°36
%
10
mi
1019.7
mb
ESE
110°
9
mph
0.00"
5:15 PM 48° 21° 43°34
%
10
mi
1020.0
mb
SE
140°
10
mph
0.00"
4:55 PM 48° 22° 45°35
%
10
mi
1020.0
mb
SSE
150°
7
mph
0.00"
4:35 PM 48° 22° 43°36
%
10
mi
1020.3
mb
ESE
120°
10
mph
0.00"
4:15 PM 47° 21° 43°35
%
10
mi
1020.3
mb
SE
130°
9
mph
0.00"
3:55 PM 47° 20° 44°35
%
10
mi
1020.7
mb
ESE
110°
6
mph
0.00"
3:35 PM 47° 20° 43°34
%
10
mi
1021.3
mb
ESE
110°
7
mph
0.00"
3:15 PM 46° 18° 42°32
%
10
mi
1021.3
mb
SSE
150°
7
mph
0.00"
2:55 PM 46° 22° 43°38
%
10
mi
1021.7
mb
SE
130°
6
mph
0.00"
2:35 PM 45° 20° 41°37
%
10
mi
1022.0
mb
SE
140°
7
mph
0.00"
2:15 PM 44° 18° 41°35
%
10
mi
1022.4
mb
ESE
110°
6
mph
0.00"
1:55 PM 43° 22° 39°42
%
10
mi
1022.7
mb
E
80°
7
mph
0.00"
1:35 PM 42° 19° 38°40
%
10
mi
1023.0
mb
SE
130°
6
mph
0.00"
1:15 PM 40° 21° 36°47
%
10
mi
1023.4
mb
E
100°
6
mph
0.00"
12:55 PM 38° 23° 35°53
%
10
mi
1023.7
mb
E
90°
5
mph
0.00"